Change the Weather History Date:

Monday, September 16, 2013

  Actual Average Record
Temperature  
Mean Temperature 81 °F -  
Max Temperature 91 °F 89 °F 100 °F (1972)
Min Temperature 71 °F 68 °F 55 °F (1967)
Cooling Degree Days 16    
Growing Degree Days 31 (Base 50)    
Moisture  
Dew Point 74 °F    
Average Humidity 89    
Maximum Humidity 100    
Minimum Humidity 59    
Precipitation  
Precipitation 0.00 in - - ()
Sea Level Pressure  
Sea Level Pressure 30.07 in    
Wind  
Wind Speed 3 mph (NE)    
Max Wind Speed 16 mph    
Max Gust Speed 26 mph    
Visibility 9 miles    
Events Rain , Thunderstorm    
Averages and records for this station are not official NWS values.
T = Trace of Precipitation, MM = Missing Value Source: NWS Daily Summary

Daily Weather History Graph

Daily Weather History Graph

Search for Another Location

Airport or City:

Trip Planner

Search our weather history database for the weather conditions in past years. The results will help you decide how hot, cold, wet, or windy it might be!

Date:

Astronomy

Sep. 16, 2013 Rise Set
Actual Time 7:10 AM EDT 7:30 PM EDT
Civil Twilight 6:46 AM EDT 7:54 PM EDT
Nautical Twilight 6:17 AM EDT 8:23 PM EDT
Astronomical Twilight 5:48 AM EDT 8:52 PM EDT
Moon 5:31 PM EDT (9/16) 4:04 AM EDT (9/16)
Length of Visible Light 13h 08m
Length of Day
12h 19m
Waxing Gibbous, 90% of the Moon is Illuminated
Sep 16
Waxing Gibbous
Sep 19
Full
Sep 26
Last Quarter
Oct 4
New
Oct 11
First Quarter

Hourly Weather History & Observations

Time (EDT) Temp. Heat Index Dew Point Humidity Pressure Visibility Wind Dir Wind Speed Gust Speed Precip Events Conditions
12:55 AM 75.2 °F - 75.2 °F 100% 30.10 in 10.0 mi Calm Calm - N/A   Overcast
1:55 AM 75.2 °F - 75.2 °F 100% 30.10 in 10.0 mi Calm Calm - N/A   Mostly Cloudy
2:55 AM 73.4 °F - 73.4 °F 100% 30.10 in 10.0 mi Calm Calm - N/A   Partly Cloudy
3:55 AM 73.4 °F - 73.4 °F 100% 30.08 in 10.0 mi Calm Calm - N/A   Clear
4:55 AM 73.4 °F - 73.4 °F 100% 30.07 in 10.0 mi Calm Calm - N/A   Clear
5:55 AM 71.6 °F - 71.6 °F 100% 30.08 in 10.0 mi Calm Calm - N/A   Partly Cloudy
6:55 AM 71.6 °F - 71.6 °F 100% 30.09 in 10.0 mi Calm Calm - N/A   Clear
7:55 AM 73.4 °F - 73.4 °F 100% 30.10 in 10.0 mi Calm Calm - N/A   Clear
8:55 AM 77.0 °F - 77.0 °F 100% 30.10 in 10.0 mi North 1.2 mph - N/A   Clear
9:55 AM 82.4 °F 94.0 °F 80.6 °F 94% 30.11 in 10.0 mi Variable 1.2 mph - N/A   Clear
10:26 AM 84.2 °F 98.3 °F 80.6 °F 89% 30.12 in 10.0 mi Variable 3.5 mph - N/A   Mostly Cloudy
10:41 AM 82.4 °F 92.4 °F 78.8 °F 89% 30.12 in 10.0 mi WNW 3.5 mph - N/A   Scattered Clouds
10:55 AM 82.4 °F 92.4 °F 78.8 °F 89% 30.12 in 10.0 mi Calm Calm - N/A   Partly Cloudy
11:55 AM 86.0 °F 96.9 °F 77.0 °F 74% 30.11 in 10.0 mi Variable 3.5 mph - N/A   Partly Cloudy
12:55 PM 89.6 °F 102.2 °F 77.0 °F 66% 30.09 in 10.0 mi Variable 4.6 mph - N/A   Scattered Clouds
1:55 PM 89.6 °F 102.2 °F 77.0 °F 66% 30.06 in 10.0 mi Variable 2.3 mph - N/A   Mostly Cloudy
2:55 PM 89.6 °F 99.8 °F 75.2 °F 62% 30.04 in 10.0 mi SE 5.8 mph - N/A   Partly Cloudy
3:55 PM 91.4 °F 102.5 °F 75.2 °F 59% 30.01 in 10.0 mi SE 5.8 mph - N/A   Clear
4:55 PM 89.6 °F 104.7 °F 78.8 °F 70% 30.02 in 10.0 mi ESE 12.7 mph 17.3 mph N/A   Scattered Clouds
5:55 PM 84.2 °F 94.1 °F 77.0 °F 79% 30.01 in 10.0 mi SE 6.9 mph - N/A   Clear
6:46 PM 84.2 °F 94.1 °F 77.0 °F 79% 30.04 in 10.0 mi Variable 3.5 mph - N/A Thunderstorm Thunderstorm
6:55 PM 82.4 °F 88.2 °F 73.4 °F 74% 30.06 in 10.0 mi NNW 11.5 mph 26.5 mph N/A Thunderstorm Thunderstorm
7:04 PM 78.8 °F - 71.6 °F 78% 30.05 in 10.0 mi North 15.0 mph 26.5 mph N/A Rain , Thunderstorm Light Thunderstorms and Rain
7:06 PM 77.0 °F - 71.6 °F 83% 30.05 in 10.0 mi North 16.1 mph 26.5 mph N/A Rain , Thunderstorm Light Thunderstorms and Rain
7:18 PM 75.2 °F - 71.6 °F 89% 30.07 in 9.0 mi ENE 10.4 mph 20.7 mph N/A Rain , Thunderstorm Thunderstorms and Rain
7:29 PM 73.4 °F - 71.6 °F 94% 30.06 in 2.5 mi ENE 9.2 mph - N/A Rain , Thunderstorm Heavy Thunderstorms and Rain
7:34 PM 73.4 °F - 71.6 °F 94% 30.07 in 3.0 mi NE 6.9 mph - N/A Rain Light Rain
7:35 PM 71.6 °F - 71.6 °F 100% 30.07 in 3.0 mi NE 5.8 mph - N/A Rain Light Rain
7:55 PM 71.6 °F - 71.6 °F 100% 30.08 in 10.0 mi NNE 5.8 mph - N/A Rain Light Rain
8:10 PM 71.6 °F - 71.6 °F 100% 30.07 in 10.0 mi North 4.6 mph - N/A   Overcast
8:55 PM 71.6 °F - 71.6 °F 100% 30.07 in 10.0 mi SSE 1.2 mph - N/A   Mostly Cloudy
9:55 PM 71.6 °F - 71.6 °F 100% 30.07 in 10.0 mi NE 2.3 mph - N/A   Mostly Cloudy
10:55 PM 71.6 °F - 71.6 °F 100% 30.07 in 10.0 mi Calm Calm - N/A   Clear
11:55 PM 71.6 °F - 71.6 °F 100% 30.07 in 10.0 mi WSW 2.3 mph - N/A   Clear